M I D A S
Marine Information and Data Acquisition System
Tripno 2022 of the Zeeleeuw from 2010-09-07 06:20:03 to 2010-09-07 10:14:17
Back to CruiseResearch ActivitiesStationsMapUnderway DataData graphs

EquipmentUnitsComments
TimeDGPSUTC
LatitudeDGPSDM.mWGS84
LongitudeDGPSDM.mWGS84
SpeedMeteo Stationm/sRelative wind speed
DirectionMeteo StationdegRelative wind direction
TemperatureMeteo Stationdeg CelciusAir temperature
PressureMeteo StationPaAtmospheric pressure
HumidityMeteo Station%Relative humidity
Missing or incorrect values are displayed as -999
Metereological data collected by the RV Zeeleeuw from 2010-09-07 06:20:47 to 2010-09-07 10:14:16
Time Latitude Longitude Speed Direction Temperature Pressure Humidity
2010-09-07 06:21 51°13.676 2°55.896 1.5 32 14.2 100210 51
2010-09-07 06:22 51°13.689 2°55.789 1.6 38 14.2 100210 52
2010-09-07 06:23 51°13.686 2°55.733 1.3 31 14.2 100210 52
2010-09-07 06:24 51°13.701 2°55.752 0.1 28 14.2 100210 50
2010-09-07 06:25 51°13.758 2°55.701 0.1 20 14.2 100210 51
2010-09-07 06:26 51°13.865 2°55.606 0.6 316 14.2 100210 51
2010-09-07 06:27 51°14.001 2°55.508 1.6 320 14.3 100210 52
2010-09-07 06:28 51°14.149 2°55.399 1.4 327 14.3 100210 52
2010-09-07 06:29 51°14.295 2°55.271 2.6 24 14.3 100210 51
2010-09-07 06:30 51°14.446 2°55.125 1.7 324 14.3 100200 52
2010-09-07 06:31 51°14.613 2°54.929 5.1 27 14.3 100200 52
2010-09-07 06:32 51°14.786 2°54.714 3.9 22 14.4 100200 51
2010-09-07 06:33 51°14.966 2°54.479 3.8 21 14.4 100200 50
2010-09-07 06:34 51°15.131 2°54.27 4.5 21 14.5 100200 50
2010-09-07 06:35 51°15.302 2°54.062 4.1 25 14.5 100210 50
2010-09-07 06:36 51°15.473 2°53.85 5 21 14.6 100200 51
2010-09-07 06:37 51°15.643 2°53.639 4.2 243 14.6 100200 53
2010-09-07 06:38 51°15.825 2°53.447 4.3 247 14.7 100210 52
2010-09-07 06:39 51°16.004 2°53.252 4.2 249 14.7 100210 51
2010-09-07 06:40 51°16.181 2°53.059 5 23 14.7 100210 52
2010-09-07 06:41 51°16.362 2°52.876 4.2 246 14.8 100210 53
2010-09-07 06:42 51°16.552 2°52.728 4 257 14.8 100210 53
2010-09-07 06:43 51°16.741 2°52.582 4 22 14.8 100210 52
2010-09-07 06:44 51°16.924 2°52.434 5 251 14.8 100220 53
2010-09-07 06:45 51°17.104 2°52.275 4 22 14.8 100210 53
2010-09-07 06:46 51°17.292 2°52.126 5.6 21 14.8 100210 51
2010-09-07 06:47 51°17.479 2°51.986 4 250 14.9 100220 52
2010-09-07 06:48 51°17.664 2°51.843 4.6 19 14.9 100210 50
2010-09-07 06:49 51°17.851 2°51.699 4.1 250 14.9 100220 51
2010-09-07 06:50 51°18.04 2°51.552 3.7 22 15 100220 51
2010-09-07 06:51 51°18.23 2°51.398 5.6 249 15 100220 52
2010-09-07 06:52 51°18.399 2°51.216 5.3 21 15.1 100210 53
2010-09-07 06:53 51°18.501 2°51.093 4.7 25 15.1 100220 51
2010-09-07 06:54 51°18.535 2°51.022 4.1 265 15.1 100210 53
2010-09-07 06:55 51°18.526 2°50.992 6.7 258 15.1 100200 53
2010-09-07 06:56 51°18.516 2°50.973 5.2 262 15.1 100210 53
2010-09-07 06:57 51°18.506 2°50.954 4.4 268 15.2 100210 51
2010-09-07 06:58 51°18.496 2°50.931 5.8 13 15.2 100200 51
2010-09-07 06:59 51°18.487 2°50.908 6.1 270 15.2 100200 51
2010-09-07 07:00 51°18.479 2°50.885 4.4 269 15.2 100200 52
2010-09-07 07:01 51°18.47 2°50.86 5.2 267 15.2 100200 52
2010-09-07 07:02 51°18.463 2°50.835 4 267 15.2 100220 53
2010-09-07 07:03 51°18.454 2°50.809 4.4 264 15.2 100210 53
2010-09-07 07:04 51°18.446 2°50.783 4.9 265 15.3 100210 51
2010-09-07 07:05 51°18.438 2°50.756 3.9 265 15.3 100210 51
2010-09-07 07:06 51°18.431 2°50.729 3.9 263 15.3 100210 51
2010-09-07 07:07 51°18.423 2°50.7 5.3 266 15.3 100220 50
2010-09-07 07:08 51°18.416 2°50.671 4.8 265 15.3 100210 51
2010-09-07 07:09 51°18.408 2°50.642 3.6 263 15.3 100210 52
2010-09-07 07:10 51°18.401 2°50.613 4.3 264 15.3 100210 50
2010-09-07 07:11 51°18.394 2°50.581 5.8 261 15.3 100210 51
2010-09-07 07:12 51°18.406 2°50.496 4.5 268 15.4 100220 52
2010-09-07 07:13 51°18.492 2°50.442 0.1 263 15.4 100210 52
2010-09-07 07:14 51°18.648 2°50.375 1.3 251 15.4 100210 51
2010-09-07 07:15 51°18.847 2°50.317 0.3 22 15.4 100200 51
2010-09-07 07:16 51°19.05 2°50.269 0.6 27 15.4 100200 53
2010-09-07 07:17 51°19.255 2°50.228 0.1 22 15.5 100210 53
2010-09-07 07:18 51°19.461 2°50.187 0.5 259 15.5 100220 53
2010-09-07 07:19 51°19.669 2°50.15 2.5 250 15.5 100220 51
2010-09-07 07:20 51°19.878 2°50.11 1.6 21 15.6 100210 53
2010-09-07 07:21 51°20.086 2°50.063 2.5 249 15.6 100200 51
2010-09-07 07:22 51°20.294 2°50.018 0.3 247 15.6 100200 54
2010-09-07 07:23 51°20.503 2°49.97 1 248 15.7 100200 52
2010-09-07 07:24 51°20.712 2°49.921 0.7 250 15.7 100200 51
2010-09-07 07:25 51°20.922 2°49.873 0.8 266 15.7 100200 51
2010-09-07 07:26 51°21.131 2°49.829 0.8 256 15.7 100200 51
2010-09-07 07:27 51°21.34 2°49.784 2.8 254 15.8 100200 52
2010-09-07 07:28 51°21.548 2°49.735 0.5 264 15.8 100200 53
2010-09-07 07:29 51°21.753 2°49.69 0.5 262 15.8 100200 52
2010-09-07 07:30 51°21.957 2°49.647 1.3 263 15.8 100200 54
2010-09-07 07:31 51°22.163 2°49.601 1.1 248 15.9 100200 51
2010-09-07 07:32 51°22.371 2°49.567 0.5 254 15.9 100200 52
2010-09-07 07:33 51°22.574 2°49.502 1.3 27 15.9 100200 52
2010-09-07 07:34 51°22.776 2°49.432 1.2 23 16 100200 52
2010-09-07 07:35 51°22.971 2°49.348 1.8 245 16 100200 52
2010-09-07 07:36 51°23.163 2°49.257 1.3 252 16.1 100200 51
2010-09-07 07:37 51°23.307 2°49.183 1 268 16 100200 51
2010-09-07 07:38 51°23.404 2°49.12 3 268 16 100200 52
2010-09-07 07:39 51°23.488 2°49.062 2.7 27 15.9 100200 49
2010-09-07 07:40 51°23.533 2°49.002 4.1 266 16 100200 51
2010-09-07 07:41 51°23.528 2°48.972 4.9 262 16 100200 53
2010-09-07 07:42 51°23.515 2°48.956 4.8 267 16 100200 53
2010-09-07 07:43 51°23.502 2°48.94 6.2 26 16 100200 51
2010-09-07 07:44 51°23.49 2°48.923 5.6 25 16 100200 52
2010-09-07 07:45 51°23.48 2°48.906 5.6 22 16 100200 53
2010-09-07 07:46 51°23.468 2°48.885 7 24 16 100200 51
2010-09-07 07:47 51°23.458 2°48.862 5.7 22 15.9 100210 53
2010-09-07 07:48 51°23.451 2°48.839 5.6 24 15.9 100210 50
2010-09-07 07:49 51°23.445 2°48.813 5.9 20 15.9 100210 52
2010-09-07 07:50 51°23.472 2°48.774 3.1 28 15.9 100200 51
2010-09-07 07:51 51°23.61 2°48.721 0.6 269 15.9 100200 53
2010-09-07 07:52 51°23.808 2°48.68 0.2 247 16.1 100200 50
2010-09-07 07:53 51°24.01 2°48.639 1.4 249 16.2 100210 53
2010-09-07 07:54 51°24.219 2°48.595 0.1 257 16.2 100200 52
2010-09-07 07:56 51°24.557 2°48.565 0.1 23 16.3 100200 52
2010-09-07 07:57 51°24.764 2°48.552 0.1 286 16.3 100210 52
2010-09-07 07:58 51°24.968 2°48.549 0.1 282 16.4 100210 50
2010-09-07 07:59 51°25.17 2°48.553 0.9 278 16.4 100210 51
2010-09-07 08:00 51°25.374 2°48.561 1.9 282 16.4 100210 52
2010-09-07 08:01 51°25.576 2°48.566 0.8 278 16.4 100210 50
2010-09-07 08:02 51°25.751 2°48.567 1.3 286 16.4 100210 51
2010-09-07 08:03 51°25.858 2°48.564 1.6 75 16.3 100210 50
2010-09-07 08:04 51°25.941 2°48.546 3.6 82 16.3 100200 50
2010-09-07 08:05 51°25.976 2°48.501 5.3 278 16.2 100210 51
2010-09-07 08:06 51°25.968 2°48.477 5 277 16.2 100200 49
2010-09-07 08:07 51°25.959 2°48.46 6.3 280 16.2 100200 50
2010-09-07 08:08 51°25.95 2°48.445 3.5 280 16.3 100200 50
2010-09-07 08:09 51°25.939 2°48.433 3.5 284 16.2 100220 50
2010-09-07 08:10 51°25.929 2°48.423 4.9 284 16.3 100210 50
2010-09-07 08:11 51°25.918 2°48.411 5.5 284 16.2 100210 52
2010-09-07 08:12 51°25.906 2°48.4 5.4 78 16.2 100210 50
2010-09-07 08:13 51°25.91 2°48.381 3 82 16.2 100220 52
2010-09-07 08:14 51°26.025 2°48.329 2.5 280 16.2 100210 48
2010-09-07 08:15 51°26.218 2°48.253 3 279 16.2 100220 53
2010-09-07 08:16 51°26.42 2°48.176 3.2 283 16.3 100220 52
2010-09-07 08:17 51°26.62 2°48.103 3.5 279 16.3 100220 50
2010-09-07 08:18 51°26.819 2°48.008 4.2 284 16.4 100220 50
2010-09-07 08:19 51°27.014 2°47.88 3.2 282 16.4 100210 53
2010-09-07 08:20 51°27.201 2°47.716 5.2 285 16.5 100220 52
2010-09-07 08:21 51°27.38 2°47.525 5.2 284 16.5 100210 53
2010-09-07 08:22 51°27.562 2°47.339 6.8 277 16.6 100210 49
2010-09-07 08:23 51°27.745 2°47.154 6.1 277 16.6 100220 50
2010-09-07 08:24 51°27.93 2°46.968 5.6 278 16.6 100220 50
2010-09-07 08:25 51°28.112 2°46.779 6.5 285 16.6 100220 50
2010-09-07 08:26 51°28.291 2°46.59 5.8 281 16.6 100220 50
2010-09-07 08:27 51°28.466 2°46.393 5.9 279 16.6 100210 50
2010-09-07 08:28 51°28.63 2°46.201 5.2 277 16.6 100210 51
2010-09-07 08:29 51°28.699 2°46.042 3.8 280 16.6 100220 52
2010-09-07 08:30 51°28.696 2°45.985 3.6 286 16.6 100220 48
2010-09-07 08:31 51°28.689 2°45.981 3.9 280 16.7 100220 51
2010-09-07 08:32 51°28.683 2°45.974 4.5 281 16.7 100220 50
2010-09-07 08:33 51°28.675 2°45.968 3.3 283 16.7 100220 49
2010-09-07 08:34 51°28.667 2°45.96 6 284 16.7 100220 51
2010-09-07 08:35 51°28.657 2°45.953 4.7 277 16.7 100210 50
2010-09-07 08:36 51°28.648 2°45.946 3.5 280 16.7 100220 52
2010-09-07 08:37 51°28.64 2°45.942 5.1 281 16.6 100220 52
2010-09-07 08:38 51°28.631 2°45.939 4.9 283 16.6 100230 48
2010-09-07 08:39 51°28.63 2°45.909 5.1 282 16.5 100220 51
2010-09-07 08:40 51°28.6 2°45.836 6.2 284 16.5 100210 51
2010-09-07 08:41 51°28.509 2°45.815 8.3 283 16.5 100220 50
2010-09-07 08:42 51°28.333 2°45.877 9.2 283 16.5 100210 51
2010-09-07 08:43 51°28.116 2°45.962 10.4 281 16.5 100210 51
2010-09-07 08:44 51°27.902 2°46.056 10.6 280 16.5 100210 50
2010-09-07 08:45 51°27.685 2°46.14 11.2 277 16.5 100210 50
2010-09-07 08:46 51°27.465 2°46.204 11.1 281 16.5 100200 49
2010-09-07 08:47 51°27.247 2°46.271 11.6 284 16.5 100200 50
2010-09-07 08:48 51°27.033 2°46.343 9.6 280 16.4 100210 51
2010-09-07 08:49 51°26.813 2°46.419 9.4 276 16.5 100230 51
2010-09-07 08:50 51°26.598 2°46.512 11 284 16.5 100220 50
2010-09-07 08:51 51°26.385 2°46.62 10.8 278 16.4 100220 50
2010-09-07 08:52 51°26.172 2°46.729 9.4 281 16.4 100220 51
2010-09-07 08:53 51°25.958 2°46.841 11.7 285 16.4 100220 51
2010-09-07 08:54 51°25.744 2°46.948 11.6 278 16.4 100230 50
2010-09-07 08:55 51°25.533 2°47.066 12 282 16.3 100230 51
2010-09-07 08:56 51°25.32 2°47.176 10.8 280 16.4 100220 51
2010-09-07 08:57 51°25.109 2°47.29 11.9 282 16.4 100230 50
2010-09-07 08:58 51°24.899 2°47.403 10.7 284 16.3 100230 51
2010-09-07 08:59 51°24.69 2°47.514 9.7 280 16.3 100220 51
2010-09-07 09:00 51°24.483 2°47.624 10.2 279 16.3 100220 50
2010-09-07 09:01 51°24.274 2°47.731 10.9 284 16.3 100220 51
2010-09-07 09:02 51°24.065 2°47.844 10 278 16.3 100220 50
2010-09-07 09:03 51°23.856 2°47.961 11.2 284 16.3 100220 50
2010-09-07 09:04 51°23.646 2°48.073 10.3 281 16.3 100240 51
2010-09-07 09:05 51°23.437 2°48.191 11.1 284 16.3 100230 51
2010-09-07 09:06 51°23.224 2°48.303 10.3 280 16.3 100240 50
2010-09-07 09:07 51°23.003 2°48.353 10.4 280 16.4 100240 51
2010-09-07 09:08 51°22.783 2°48.328 10.7 281 16.4 100230 51
2010-09-07 09:09 51°22.57 2°48.22 12.2 286 16.4 100250 51
2010-09-07 09:10 51°22.347 2°48.186 11.2 278 16.4 100240 51
2010-09-07 09:11 51°22.128 2°48.22 12 280 16.4 100230 50
2010-09-07 09:12 51°21.923 2°48.351 10.8 282 16.4 100230 49
2010-09-07 09:13 51°21.726 2°48.516 9.9 284 16.4 100230 50
2010-09-07 09:14 51°21.529 2°48.675 9.4 279 16.3 100230 50
2010-09-07 09:15 51°21.334 2°48.828 10.5 286 16.2 100230 49
2010-09-07 09:16 51°21.138 2°48.983 10.8 280 16.3 100240 51
2010-09-07 09:17 51°20.949 2°49.157 9 347 16.2 100240 51
2010-09-07 09:18 51°20.765 2°49.334 9.4 282 16.3 100240 50
2010-09-07 09:19 51°20.577 2°49.508 10.2 281 16.3 100240 50
2010-09-07 09:20 51°20.391 2°49.681 9.3 284 16.3 100250 49
2010-09-07 09:21 51°20.204 2°49.857 11 282 16.4 100260 49
2010-09-07 09:22 51°20.017 2°50.034 9.9 278 16.3 100250 50
2010-09-07 09:23 51°19.829 2°50.214 9.2 281 16.4 100250 50
2010-09-07 09:24 51°19.639 2°50.397 9.4 283 16.4 100250 49
2010-09-07 09:25 51°19.45 2°50.581 9.1 284 16.5 100260 49
2010-09-07 09:26 51°19.261 2°50.767 9.3 282 16.4 100250 50
2010-09-07 09:27 51°19.074 2°50.95 8.7 279 16.5 100260 50
2010-09-07 09:28 51°18.886 2°51.124 10.3 283 16.5 100260 49
2010-09-07 09:29 51°18.691 2°51.286 9.1 277 16.5 100250 49
2010-09-07 09:30 51°18.496 2°51.446 9 282 16.5 100250 49
2010-09-07 09:31 51°18.303 2°51.613 9.5 283 16.6 100250 48
2010-09-07 09:32 51°18.109 2°51.777 9.4 282 16.6 100250 49
2010-09-07 09:33 51°17.915 2°51.942 8.5 278 16.6 100240 48
2010-09-07 09:34 51°17.724 2°52.109 8.9 277 16.7 100250 50
2010-09-07 09:35 51°17.535 2°52.28 9 283 16.7 100250 48
2010-09-07 09:36 51°17.35 2°52.467 8.7 277 16.7 100250 49
2010-09-07 09:37 51°17.169 2°52.661 8.4 284 16.7 100250 49
2010-09-07 09:38 51°16.987 2°52.862 8.7 283 16.7 100250 48
2010-09-07 09:39 51°16.815 2°53.084 7.3 282 16.7 100250 47
2010-09-07 09:40 51°16.681 2°53.375 7.6 284 16.7 100260 47
2010-09-07 09:41 51°16.552 2°53.669 7.4 282 16.7 100260 48
2010-09-07 09:42 51°16.422 2°53.966 6.5 277 16.6 100260 47
2010-09-07 09:43 51°16.33 2°54.209 4.2 356 16.7 100260 48
2010-09-07 09:44 51°16.282 2°54.362 4.5 279 16.7 100260 46
2010-09-07 09:45 51°16.23 2°54.395 3.5 284 16.7 100260 49
2010-09-07 09:46 51°16.212 2°54.396 2.5 282 16.9 100260 47
2010-09-07 09:47 51°16.216 2°54.417 2.6 282 17.1 100270 47
2010-09-07 09:48 51°16.226 2°54.442 2.4 283 17.1 100260 47
2010-09-07 09:49 51°16.239 2°54.47 2.5 284 17.2 100270 47
2010-09-07 09:50 51°16.253 2°54.503 2.8 283 17.3 100270 47
2010-09-07 09:51 51°16.267 2°54.538 1.2 281 17.4 100270 47
2010-09-07 09:52 51°16.283 2°54.576 0.3 281 17.4 100270 47
2010-09-07 09:53 51°16.298 2°54.612 1.9 275 17.5 100260 47
2010-09-07 09:54 51°16.302 2°54.59 4.3 284 17.6 100270 48
2010-09-07 09:55 51°16.222 2°54.511 7.1 280 17.5 100260 46
2010-09-07 09:56 51°16.059 2°54.449 7.9 283 17.4 100250 46
2010-09-07 09:57 51°15.855 2°54.428 7.5 278 17.4 100260 46
2010-09-07 09:58 51°15.648 2°54.414 8 283 17.4 100260 47
2010-09-07 09:59 51°15.443 2°54.403 7.6 285 17.4 100260 47
2010-09-07 10:00 51°15.238 2°54.417 6.8 282 17.4 100270 45
2010-09-07 10:01 51°15.04 2°54.512 6.2 281 17.4 100270 46
2010-09-07 10:02 51°14.858 2°54.703 6.1 283 17.4 100270 47
2010-09-07 10:03 51°14.676 2°54.896 5.7 283 17.4 100270 47
2010-09-07 10:04 51°14.496 2°55.084 5.9 276 17.4 100270 46
2010-09-07 10:05 51°14.316 2°55.243 5.8 280 17.4 100270 45
2010-09-07 10:06 51°14.15 2°55.392 4.9 278 17.3 100270 45
2010-09-07 10:07 51°14.006 2°55.498 3.5 283 17.4 100270 44
2010-09-07 10:08 51°13.897 2°55.58 3.3 279 17.5 100270 46
2010-09-07 10:09 51°13.804 2°55.658 5.6 277 17.7 100270 45
2010-09-07 10:10 51°13.732 2°55.767 5 284 17.8 100270 43
2010-09-07 10:11 51°13.682 2°55.885 2.5 360 17.8 100270 45
2010-09-07 10:12 51°13.663 2°55.958 1.2 -999 17.9 100270 44
2010-09-07 10:13 51°13.662 2°55.96 0.1 276 17.9 100270 45